Dennison, MN

9:49 AM CST on December 08, 2016 (GMT -0600)
Stanton

Weather History for KSYN - October, 2012

Change the Weather History Date:

Sunday, October 7, 2012

  Actual Average (KLVN) Record (KLVN)
Temperature  
Mean Temperature 38 °F -  
Max Temperature 53 °F 61 °F 87 °F (2003)
Min Temperature 22 °F 39 °F 21 °F (2001)
Degree Days  
Heating Degree Days 28    
Moisture  
Dew Point 20 °F    
Average Humidity 49    
Maximum Humidity 85    
Minimum Humidity 21    
Precipitation  
Precipitation 0.00 in - - ()
Sea Level Pressure  
Sea Level Pressure 30.08 in    
Wind  
Wind Speed 6 mph (SSW)    
Max Wind Speed 18 mph    
Max Gust Speed 24 mph    
Visibility 10 miles    
Events      
Averages and records for this station are not official NWS values.
T = Trace of Precipitation, MM = Missing Value Source: NWS Daily Summary

Daily Weather History Graph

Daily Weather History Graph

Search for Another Location

Airport or City:

Trip Planner

Search our weather history database for the weather conditions in past years. The results will help you decide how hot, cold, wet, or windy it might be!

Date:

Astronomy

Oct. 07, 2012 Rise Set
Actual Time 7:17 AM CDT 6:40 PM CDT
Civil Twilight 6:48 AM CDT 7:09 PM CDT
Nautical Twilight 6:15 AM CDT 7:43 PM CDT
Astronomical Twilight 5:41 AM CDT 8:17 PM CDT
Moon 11:44 PM CDT (10/7) 2:04 PM CDT (10/7)
Length of Visible Light 12h 21m
Length of Day
11h 23m
Waning Gibbous, 56% of the Moon is Illuminated
Oct 7
Waning Gibbous
Oct 8
Last Quarter
Oct 15
New
Oct 21
First Quarter
Oct 29
Full

Hourly Weather History & Observations

Time (CDT) Temp. Windchill Dew Point Humidity Pressure Visibility Wind Dir Wind Speed Gust Speed Precip Events Conditions
12:12 AM 37.6 °F - 23.7 °F 57% 30.22 in 10.0 mi Calm Calm - N/A   Scattered Clouds
12:32 AM 35.6 °F - 23.2 °F 61% 30.21 in 10.0 mi Calm Calm - N/A   Scattered Clouds
12:52 AM 34.7 °F - 23.0 °F 62% 30.21 in 10.0 mi Calm Calm - N/A   Mostly Cloudy
1:12 AM 34.2 °F 31.2 °F 23.0 °F 64% 30.20 in 10.0 mi WSW 3.5 mph - N/A   Overcast
1:32 AM 33.4 °F - 22.5 °F 64% 30.20 in 10.0 mi Calm Calm - N/A   Mostly Cloudy
2:12 AM 32.0 °F 27.5 °F 21.6 °F 65% 30.20 in 10.0 mi WSW 4.6 mph - N/A   Clear
2:32 AM 31.6 °F 28.3 °F 21.9 °F 67% 30.20 in 10.0 mi SSW 3.5 mph - N/A   Clear
2:51 AM 29.7 °F 24.7 °F 21.2 °F 71% 30.20 in 10.0 mi SW 4.6 mph - N/A   Clear
3:12 AM 29.8 °F 24.9 °F 21.2 °F 70% 30.20 in 10.0 mi SW 4.6 mph - N/A   Clear
3:32 AM 28.9 °F 23.9 °F 20.8 °F 72% 30.19 in 10.0 mi SSW 4.6 mph - N/A   Clear
3:52 AM 28.8 °F 23.7 °F 21.0 °F 73% 30.19 in 10.0 mi SSW 4.6 mph - N/A   Clear
4:12 AM 27.9 °F 22.6 °F 20.8 °F 75% 30.19 in 10.0 mi SSW 4.6 mph - N/A   Clear
4:32 AM 28.4 °F 23.3 °F 21.0 °F 74% 30.18 in 10.0 mi SSW 4.6 mph - N/A   Clear
4:52 AM 25.9 °F 20.3 °F 19.6 °F 77% 30.18 in 10.0 mi SSW 4.6 mph - N/A   Clear
5:12 AM 25.7 °F 20.1 °F 20.3 °F 80% 30.18 in 10.0 mi SSW 4.6 mph - N/A   Clear
5:32 AM 26.2 °F 20.7 °F 20.5 °F 79% 30.18 in 10.0 mi SSW 4.6 mph - N/A   Clear
5:52 AM 25.7 °F 20.1 °F 20.1 °F 79% 30.18 in 10.0 mi SSW 4.6 mph - N/A   Clear
6:12 AM 26.2 °F 19.6 °F 20.1 °F 78% 30.17 in 10.0 mi South 5.8 mph - N/A   Clear
6:52 AM 26.1 °F 20.5 °F 20.7 °F 80% 30.17 in 10.0 mi SSW 4.6 mph - N/A   Clear
7:12 AM 23.7 °F 16.6 °F 19.6 °F 84% 30.17 in 10.0 mi SSW 5.8 mph - N/A   Clear
7:32 AM 22.8 °F 16.7 °F 18.9 °F 85% 30.17 in 10.0 mi SSW 4.6 mph - N/A   Clear
7:52 AM 24.6 °F 17.7 °F 20.3 °F 84% 30.17 in 10.0 mi SSW 5.8 mph - N/A   Clear
8:12 AM 27.5 °F 21.1 °F 22.5 °F 81% 30.17 in 10.0 mi SSW 5.8 mph - N/A   Clear
8:52 AM 32.0 °F 27.5 °F 25.5 °F 77% 30.17 in 10.0 mi SSW 4.6 mph - N/A   Clear
9:12 AM 34.7 °F 28.1 °F 25.9 °F 70% 30.17 in 10.0 mi SW 8.1 mph - N/A   Clear
9:32 AM 37.4 °F 31.4 °F 25.9 °F 63% 30.16 in 10.0 mi SW 8.1 mph - N/A   Clear
9:52 AM 38.5 °F 32.1 °F 24.8 °F 58% 30.16 in 10.0 mi SSW 9.2 mph - N/A   Clear
10:12 AM 41.2 °F 34.5 °F 23.5 °F 50% 30.16 in 10.0 mi SW 11.5 mph - N/A   Clear
10:32 AM 42.4 °F 35.3 °F 22.1 °F 44% 30.15 in 10.0 mi SW 13.8 mph - N/A   Clear
10:52 AM 43.5 °F 36.7 °F 22.1 °F 43% 30.15 in 10.0 mi SW 13.8 mph - N/A   Clear
11:12 AM 44.2 °F 38.0 °F 21.2 °F 40% 30.15 in 10.0 mi WSW 12.7 mph 18.4 mph N/A   Clear
11:32 AM 45.9 °F 39.7 °F 21.6 °F 38% 30.14 in 10.0 mi SW 13.8 mph 19.6 mph N/A   Clear
12:12 PM 47.5 °F - 20.8 °F 35% 30.13 in 10.0 mi SW 12.7 mph 19.6 mph N/A   Clear
12:32 PM 47.7 °F - 19.9 °F 33% 30.12 in 10.0 mi SW 11.5 mph 16.1 mph N/A   Clear
12:52 PM 48.7 °F - 18.3 °F 30% 30.11 in 10.0 mi SW 11.5 mph 17.3 mph N/A   Clear
1:11 PM 49.6 °F - 18.3 °F 29% 30.10 in 10.0 mi SSW 10.4 mph 20.7 mph N/A   Clear
1:32 PM 50.5 °F - 18.0 °F 28% 30.08 in 10.0 mi West 11.5 mph 23.0 mph N/A   Clear
1:52 PM 50.2 °F - 16.7 °F 27% 30.07 in 10.0 mi SW 15.0 mph 21.9 mph N/A   Clear
2:12 PM 50.9 °F - 17.1 °F 26% 30.06 in 10.0 mi SW 15.0 mph 20.7 mph N/A   Clear
2:32 PM 51.1 °F - 17.4 °F 26% 30.05 in 10.0 mi SW 18.4 mph - N/A   Clear
2:52 PM 51.8 °F - 17.4 °F 26% 30.04 in 10.0 mi SW 12.7 mph 24.2 mph N/A   Clear
3:12 PM 52.2 °F - 17.1 °F 25% 30.03 in 10.0 mi SW 17.3 mph 23.0 mph N/A   Clear
3:32 PM 51.4 °F - 17.4 °F 26% 30.01 in 10.0 mi SW 12.7 mph 18.4 mph N/A   Clear
3:52 PM 52.9 °F - 16.5 °F 24% 30.01 in 10.0 mi SSW 10.4 mph - N/A   Clear
4:12 PM 52.7 °F - 16.2 °F 24% 30.00 in 10.0 mi SW 15.0 mph 20.7 mph N/A   Clear
4:32 PM 53.8 °F - 15.6 °F 22% 29.99 in 10.0 mi SW 15.0 mph 21.9 mph N/A   Clear
4:52 PM 53.2 °F - 14.4 °F 21% 29.98 in 10.0 mi SW 13.8 mph - N/A   Clear
5:12 PM 53.1 °F - 15.8 °F 23% 29.98 in 10.0 mi SW 11.5 mph - N/A   Clear
5:32 PM 52.3 °F - 15.8 °F 24% 29.97 in 10.0 mi SSW 9.2 mph - N/A   Clear
5:52 PM 52.2 °F - 15.8 °F 24% 29.96 in 10.0 mi SSW 6.9 mph - N/A   Clear
6:12 PM 50.0 °F - 16.7 °F 27% 29.95 in 10.0 mi South 5.8 mph - N/A   Clear
6:32 PM 47.8 °F - 17.1 °F 29% 29.95 in 10.0 mi South 3.5 mph - N/A   Clear
6:52 PM 46.0 °F 43.1 °F 17.6 °F 32% 29.95 in 10.0 mi South 5.8 mph - N/A   Clear
7:12 PM 44.8 °F 42.4 °F 18.3 °F 35% 29.95 in 10.0 mi South 4.6 mph - N/A   Clear
7:32 PM 45.0 °F 41.8 °F 18.5 °F 35% 29.95 in 10.0 mi South 5.8 mph - N/A   Clear
7:52 PM 45.0 °F 42.6 °F 19.0 °F 36% 29.95 in 10.0 mi South 4.6 mph - N/A   Clear
8:12 PM 41.0 °F 38.0 °F 20.3 °F 44% 29.95 in 10.0 mi South 4.6 mph - N/A   Clear
8:32 PM 43.3 °F 39.9 °F 19.6 °F 39% 29.94 in 10.0 mi South 5.8 mph - N/A   Clear
8:52 PM 42.4 °F 38.1 °F 20.1 °F 41% 29.94 in 10.0 mi SSW 6.9 mph - N/A   Scattered Clouds
9:12 PM 42.3 °F 38.6 °F 20.1 °F 41% 29.94 in 10.0 mi South 5.8 mph - N/A   Mostly Cloudy
9:32 PM 41.9 °F 37.5 °F 20.3 °F 42% 29.94 in 10.0 mi South 6.9 mph - N/A   Scattered Clouds
9:52 PM 41.2 °F 37.3 °F 20.7 °F 44% 29.93 in 10.0 mi SSW 5.8 mph - N/A   Clear
10:12 PM 41.5 °F 37.1 °F 20.8 °F 44% 29.93 in 10.0 mi South 6.9 mph - N/A   Clear
10:32 PM 39.2 °F 35.0 °F 21.2 °F 49% 29.93 in 10.0 mi SSW 5.8 mph - N/A   Clear
10:52 PM 40.5 °F 35.1 °F 21.2 °F 46% 29.92 in 10.0 mi South 8.1 mph - N/A   Clear
11:12 PM 41.0 °F 35.8 °F 21.2 °F 45% 29.92 in 10.0 mi South 8.1 mph - N/A   Clear
11:32 PM 41.2 °F 35.5 °F 21.7 °F 46% 29.91 in 10.0 mi South 9.2 mph - N/A   Clear
11:52 PM 41.0 °F 35.8 °F 21.9 °F 47% 29.90 in 10.0 mi South 8.1 mph - N/A   Clear